Weather History for Westfield, MA

Change the Weather History Date:

Friday, November 2, 2012

  Actual Average Record
Temperature  
Mean Temperature 48 °F -  
Max Temperature 54 °F 52 °F 70 °F (2001)
Min Temperature 43 °F 33 °F 21 °F (2002)
Degree Days  
Heating Degree Days 16    
Moisture  
Dew Point 34 °F    
Average Humidity 63    
Maximum Humidity 82    
Minimum Humidity 41    
Precipitation  
Precipitation 0.00 in - - ()
Sea Level Pressure  
Sea Level Pressure 29.60 in    
Wind  
Wind Speed 6 mph (WNW)    
Max Wind Speed 15 mph    
Max Gust Speed 23 mph    
Visibility 10 miles    
Events      
Averages and records for this station are not official NWS values.
T = Trace of Precipitation, MM = Missing Value Source: NWS Daily Summary

Daily Weather History Graph

Daily Weather History Graph

Search for Another Location

Airport:

Trip Planner

Search our weather history database for the weather conditions in past years. The results will help you decide how hot, cold, wet, or windy it might be!

Date:

Astronomy

Nov. 02, 2012 Rise Set
Actual Time 7:25 AM EDT 5:42 PM EDT
Civil Twilight 6:56 AM EDT 6:11 PM EDT
Nautical Twilight 6:23 AM EDT 6:44 PM EDT
Astronomical Twilight 5:50 AM EDT 7:17 PM EDT
Moon 8:25 PM EDT (11/2) 10:46 AM EDT (11/2)
Length of Visible Light 11h 15m
Length of Day
10h 17m
Waning Gibbous, 87% of the Moon is Illuminated
Nov 2
Waning Gibbous
Nov 6
Last Quarter
Nov 13
New
Nov 20
First Quarter
Nov 28
Full

Hourly Weather History & Observations

Time (EDT) Temp. Windchill Dew Point Humidity Pressure Visibility Wind Dir Wind Speed Gust Speed Precip Events Conditions
12:53 AM 46.9 °F - 39.0 °F 74% 29.57 in 10.0 mi SW 5.8 mph - N/A   Overcast
1:53 AM 46.0 °F 43.9 °F 39.0 °F 76% 29.57 in 10.0 mi SW 4.6 mph - N/A   Mostly Cloudy
2:53 AM 45.0 °F 42.6 °F 39.0 °F 80% 29.57 in 10.0 mi SSW 4.6 mph - N/A   Overcast
3:53 AM 46.0 °F - 39.0 °F 76% 29.57 in 10.0 mi Calm Calm - N/A   Overcast
4:33 AM 44.6 °F - 39.2 °F 81% 29.56 in 10.0 mi Calm Calm - N/A   Overcast
4:46 AM 44.6 °F - 39.2 °F 81% 29.56 in 10.0 mi Calm Calm - N/A   Overcast
4:53 AM 44.1 °F - 39.0 °F 82% 29.57 in 10.0 mi Calm Calm - N/A   Overcast
5:53 AM 46.0 °F 43.1 °F 37.0 °F 71% 29.57 in 10.0 mi WSW 5.8 mph - N/A   Mostly Cloudy
6:53 AM 46.0 °F 43.9 °F 36.0 °F 68% 29.58 in 10.0 mi WSW 4.6 mph - N/A   Overcast
7:53 AM 46.0 °F 44.8 °F 36.0 °F 68% 29.59 in 10.0 mi WSW 3.5 mph - N/A   Overcast
8:53 AM 46.0 °F - 35.1 °F 66% 29.60 in 10.0 mi Calm Calm - N/A   Scattered Clouds
9:53 AM 48.0 °F - 34.0 °F 58% 29.60 in 10.0 mi WNW 3.5 mph - N/A   Mostly Cloudy
10:53 AM 48.0 °F - 34.0 °F 58% 29.60 in 10.0 mi Calm Calm - N/A   Overcast
11:53 AM 50.0 °F - 33.1 °F 52% 29.60 in 10.0 mi WNW 11.5 mph - N/A   Overcast
12:53 PM 51.1 °F - 32.0 °F 48% 29.58 in 10.0 mi NW 11.5 mph - N/A   Overcast
1:53 PM 51.1 °F - 30.9 °F 46% 29.57 in 10.0 mi NW 12.7 mph - N/A   Overcast
2:53 PM 52.0 °F - 30.9 °F 45% 29.57 in 10.0 mi WNW 13.8 mph 21.9 mph N/A   Partly Cloudy
3:53 PM 53.1 °F - 30.0 °F 41% 29.57 in 10.0 mi NW 11.5 mph - N/A   Scattered Clouds
4:53 PM 48.9 °F - 33.1 °F 54% 29.59 in 10.0 mi NW 15.0 mph 20.7 mph N/A   Mostly Cloudy
5:53 PM 46.9 °F - 32.0 °F 56% 29.61 in 10.0 mi WNW 4.6 mph - N/A   Mostly Cloudy
6:53 PM 46.0 °F 41.4 °F 28.9 °F 51% 29.65 in 10.0 mi NW 9.2 mph - N/A   Scattered Clouds
7:53 PM 45.0 °F 40.6 °F 30.0 °F 56% 29.66 in 10.0 mi WNW 8.1 mph - N/A   Mostly Cloudy
8:53 PM 44.1 °F 37.1 °F 30.0 °F 58% 29.67 in 10.0 mi WNW 15.0 mph 23.0 mph N/A   Overcast
9:53 PM 44.1 °F 38.6 °F 30.0 °F 58% 29.68 in 10.0 mi WNW 10.4 mph - N/A   Overcast
10:53 PM 44.1 °F 38.6 °F 30.9 °F 60% 29.68 in 10.0 mi WNW 10.4 mph - N/A   Overcast
11:53 PM 43.0 °F 36.8 °F 32.0 °F 65% 29.67 in 10.0 mi WNW 11.5 mph - N/A   Overcast